EHI
21 23 27 28 24 18 13 11 10 7 4 2 2 3 4 4 3 3 3 3 2 2 2 2 1 0 0 0 0 0 0 0 0 0 0 0 0 0 0 0 0 0 0
23 24 28 30 24 18 14 11 10 8 6 6 4 4 5 4 3 3 2 2 2 2 2 2 1 0 0 0 0 0 0 0 0 0 0 0 0 0 0 0 0 0 0
18 18 23 27 24 17 13 10 8 7 6 6 5 5 5 4 3 2 1 1 1 1 1 1 1 0 0 0 0 1 0 0 0 0 0 0 0 0 0 0 0 0 0
9 9 14 20 20 15 11 8 7 5 4 3 3 4 4 3 3 3 1 1 1 2 2 1 1 1 1 1 1 1 0 0 0 0 0 0 0 1 0 0 0 0 0
6 7 10 13 14 12 10 8 7 6 3 2 2 3 3 3 3 4 3 2 2 3 2 2 2 2 2 2 1 0 0 0 0 0 0 0 0 1 1 0 0 0 0
9 9 11 12 12 11 9 8 8 7 5 3 2 2 2 2 2 3 4 3 2 2 1 1 1 2 2 2 1 0 0 0 0 0 0 0 0 0 1 0 0 0 0
10 10 11 14 14 12 10 9 8 7 5 3 2 1 1 1 0 1 2 2 1 1 0 0 0 1 1 1 0 0 0 0 0 0 0 0 0 0 1 0 0 1 1
10 8 8 11 13 13 11 9 7 5 3 2 1 0 0 0 0 0 1 1 0 0 0 0 0 0 0 0 0 0 0 0 0 0 0 0 0 0 1 1 1 1 0
8 5 4 5 7 8 8 5 4 2 1 1 1 0 0 0 0 0 0 0 0 0 0 0 0 0 0 0 0 0 0 0 0 0 0 0 0 1 1 2 3 1 0
5 3 1 0 1 2 2 1 1 1 0 0 0 0 0 0 0 0 0 0 0 0 0 0 0 0 0 0 0 0 0 0 0 0 0 0 1 2 1 1 2 2 1
4 3 1 0 0 0 0 0 0 0 0 0 0 0 0 0 0 0 0 0 0 0 0 0 0 0 0 0 0 0 0 0 0 0 0 0 1 2 1 0 1 1 1
4 3 1 0 0 1 1 1 0 0 0 0 0 0 0 0 0 0 0 0 0 0 0 0 0 0 0 0 0 0 0 0 0 0 0 0 1 2 2 1 0 0 1
2 3 2 1 0 0 0 0 0 0 0 0 0 0 0 0 0 0 0 0 0 0 0 0 0 0 0 0 0 0 0 0 0 0 0 0 1 2 3 2 1 0 0
2 3 3 2 1 0 0 0 0 0 0 0 0 0 0 0 0 0 0 0 0 0 0 0 0 0 0 0 0 0 0 0 0 0 0 0 0 1 3 2 1 0 0
2 3 3 3 2 1 1 0 0 0 0 0 0 0 0 0 0 0 0 0 0 0 0 0 0 0 0 0 0 0 0 0 0 0 0 0 0 1 2 2 1 0 0
1 2 2 2 2 3 2 1 0 0 0 0 0 0 0 0 0 0 0 0 0 0 0 0 0 0 0 0 0 0 0 0 0 0 0 0 0 1 2 2 1 1 0
0 1 1 1 2 2 2 1 0 0 0 0 0 0 0 0 0 0 0 0 0 0 0 0 0 0 0 0 0 0 0 0 0 0 0 0 0 0 1 2 2 2 1
0 0 0 0 1 1 1 0 0 0 0 0 0 0 0 0 0 0 0 0 1 1 1 0 0 0 0 0 0 0 0 0 0 0 0 0 0 0 0 1 2 2 2
0 0 0 0 0 0 0 0 0 0 0 0 0 0 0 0 0 0 0 0 1 2 1 0 0 0 0 0 0 0 0 0 0 0 0 0 0 0 0 0 1 2 2
0 0 0 0 0 0 0 0 0 0 0 0 0 0 0 0 0 0 0 0 0 1 1 0 0 0 0 0 0 0 0 0 0 0 0 0 0 0 0 0 0 1 1
0 0 0 0 0 0 0 0 0 0 0 0 0 0 0 0 0 0 0 0 0 0 0 0 0 0 0 0 0 0 0 0 0 0 0 0 0 0 0 0 0 0 0
0 0 0 0 0 0 0 0 0 0 0 0 0 0 0 0 0 0 0 0 0 0 0 0 0 0 0 0 0 0 0 0 0 0 0 0 0 0 0 0 0 0 0
0 0 0 0 0 0 0 0 0 0 0 0 0 0 0 0 0 0 0 0 0 0 0 0 0 0 0 0 0 0 0 0 0 0 0 0 0 0 0 0 0 0 0
0 0 0 0 0 0 0 0 0 0 0 0 0 0 0 0 0 0 0 0 0 0 0 0 0 0 0 0 0 0 0 0 0 0 0 0 0 0 0 0 0 0 0
0 0 0 0 0 0 0 0 0 0 0 0 0 0 0 0 0 0 0 0 0 0 0 0 0 0 0 0 0 0 0 0 0 0 0 0 0 0 0 0 0 0 0
0 0 0 0 0 0 0 0 0 0 0 0 0 0 0 0 0 0 0 0 0 0 0 0 0 0 0 0 0 0 0 0 0 0 0 0 0 0 0 0 0 0 0
Wind_Speed
7 9 10 11 11 11 11 11 11 10 10 10 10 10 10 10 10 10 9 9 9 8 8 7 7 7 7 7 7 7 7 7 6 6 5 5 4 4 4 5 4 3 5
11 10 11 12 12 12 12 11 11 11 10 10 10 10 10 10 10 10 10 9 9 8 8 8 7 7 7 7 7 6 6 5 5 4 3 2 2 3 3 4 3 3 5
12 11 11 12 12 12 12 12 11 11 11 10 10 10 10 10 10 10 9 9 9 8 8 8 8 7 7 7 6 6 5 4 3 2 2 1 1 2 3 3 2 2 3
12 10 10 12 12 12 12 12 12 11 11 11 10 10 10 10 10 10 9 9 9 9 8 8 7 7 7 7 6 5 4 3 3 3 2 1 1 3 2 2 2 1 1
11 10 11 12 13 12 12 12 12 11 11 11 11 10 10 10 10 10 10 9 9 9 9 9 8 7 7 6 6 5 4 4 4 3 2 2 2 3 3 3 2 2 1
11 11 10 13 13 12 12 12 12 12 11 11 11 11 11 10 10 10 10 9 9 9 9 9 9 8 7 6 5 5 5 5 4 2 2 2 2 3 3 3 2 1 2
11 10 10 13 13 13 12 12 12 11 11 11 10 10 10 10 10 10 9 9 9 9 9 9 8 8 8 7 6 5 5 6 3 2 2 2 3 4 3 3 2 2 2
11 11 10 13 13 13 12 12 11 11 11 10 10 9 9 9 10 10 9 9 9 8 8 8 8 8 7 7 7 6 6 6 4 3 2 2 4 4 3 3 3 3 3
10 10 8 8 9 12 12 12 11 11 10 10 9 9 8 8 9 9 9 9 8 7 7 7 6 6 6 6 6 7 6 6 4 2 3 2 5 5 4 4 3 4 4
8 8 8 7 7 7 7 10 10 10 9 9 8 6 6 7 7 8 7 7 7 7 6 6 5 5 5 5 5 6 7 5 3 2 2 3 5 5 5 4 4 5 5
7 6 7 7 6 6 6 8 7 7 7 7 5 5 4 2 3 4 5 6 6 5 5 5 5 5 4 4 4 5 5 2 3 2 2 3 5 5 5 5 5 6 6
6 6 6 6 6 5 5 4 3 3 3 3 2 2 2 2 2 3 3 4 4 4 4 4 4 4 3 1 3 3 1 2 2 2 2 3 4 5 6 6 6 7 7
6 6 6 6 5 4 3 3 2 2 2 2 3 2 2 2 1 1 1 1 1 2 2 3 2 1 1 1 1 1 2 1 1 1 1 3 5 6 7 7 8 8 8
7 6 6 6 5 4 3 2 2 2 2 2 2 2 2 2 2 2 1 1 1 1 1 2 1 2 2 2 2 2 3 2 1 1 1 3 5 7 8 8 8 9 9
8 7 6 6 5 4 3 2 3 2 2 2 2 2 3 2 2 1 1 1 1 1 1 2 2 2 2 2 2 3 3 3 3 2 1 3 6 7 8 9 9 10 10
8 7 6 6 5 4 3 2 2 2 2 2 2 2 2 2 2 1 1 1 1 1 1 1 2 2 2 2 2 3 3 3 3 3 2 3 5 7 9 10 10 11 11
8 8 7 6 6 5 4 3 2 2 2 2 2 2 2 2 2 1 1 1 1 1 2 2 2 2 2 2 3 3 3 3 3 3 3 2 3 6 9 10 10 11 12
9 8 7 6 6 5 4 3 2 2 2 2 2 2 2 2 2 1 1 1 1 1 1 2 2 2 2 2 3 3 3 3 4 4 3 3 3 3 5 9 10 12 13
9 9 8 6 6 5 4 3 3 2 2 2 2 1 1 1 1 1 1 1 1 1 1 2 2 2 2 3 3 3 3 3 4 5 4 4 4 3 3 6 9 11 13
8 9 8 7 6 5 4 3 2 2 1 2 1 1 1 1 1 1 1 1 2 1 1 2 2 2 2 3 4 4 4 4 4 4 4 4 3 4 4 5 4 7 12
8 9 8 7 6 5 4 3 2 2 1 1 1 1 1 1 1 1 1 1 1 1 1 2 2 2 3 2 3 4 4 4 4 3 3 3 4 4 4 5 4 4 5
9 8 8 7 7 6 4 3 2 2 1 1 1 1 1 1 0 0 0 1 1 1 2 2 2 2 2 2 2 4 4 4 3 4 3 4 4 4 5 6 5 5 4
8 9 8 7 7 6 5 3 3 2 1 1 0 0 1 1 0 0 1 1 1 1 2 2 2 2 3 2 1 1 2 4 6 3 4 4 4 4 4 4 6 5 6
7 7 7 7 6 6 5 5 5 3 2 2 1 1 1 1 1 1 1 1 2 1 2 3 2 2 2 3 3 2 3 4 5 7 4 3 5 6 5 6 6 6 6
6 6 6 7 6 5 5 5 4 2 1 1 1 1 1 1 1 2 2 2 2 2 2 3 3 3 2 3 3 3 3 4 4 6 9 6 5 5 5 5 5 6 6
6 6 6 6 5 5 5 4 4 3 2 2 1 2 1 1 1 2 2 2 2 2 3 3 4 4 4 4 4 3 3 4 4 5 8 9 8 6 6 5 5 5 5
Wind_Direction
105 106 100 95 92 92 92 91 87 87 85 85 86 85 82 80 78 79 81 80 78 77 75 72 70 68 64 61 58 58 60 60 56 56 59 69 75 77 75 69 71 69 86
111 109 100 96 93 92 92 90 88 86 86 85 85 85 83 80 78 78 78 77 75 74 73 69 66 67 63 60 57 55 56 56 52 51 54 57 81 90 79 72 71 66 86
110 110 102 97 95 92 91 90 88 86 85 84 83 83 82 80 78 78 78 74 71 70 68 67 63 63 61 58 54 52 51 48 36 15 355 290 120 110 93 82 79 81 88
110 107 104 100 97 94 93 91 89 87 85 83 83 82 82 80 77 76 76 74 69 66 64 61 57 55 57 55 49 45 41 26 1 335 332 32 58 86 90 85 70 85 91
106 103 104 103 100 96 94 91 88 86 84 83 83 82 81 79 76 72 72 72 69 65 62 58 52 49 51 50 45 37 25 4 347 337 359 29 41 62 76 81 75 58 43
106 104 105 103 102 98 94 91 88 86 84 83 82 80 79 77 74 72 69 69 67 64 61 56 51 47 46 43 37 27 15 354 334 337 20 26 43 57 62 63 60 43 24
107 107 108 102 100 97 95 92 89 86 84 83 81 80 78 76 75 72 68 67 65 63 58 53 48 44 41 38 30 16 3 352 340 347 10 24 39 46 43 40 25 351 334
110 111 109 103 100 96 94 92 89 87 85 82 81 80 79 77 74 70 67 66 64 62 58 53 47 43 38 32 24 11 1 351 346 351 9 31 40 43 28 22 15 3 351
113 116 117 113 104 97 94 92 90 89 86 83 80 80 80 78 75 71 65 63 61 58 54 49 43 41 35 28 22 10 355 346 339 343 2 35 36 30 13 9 360 347 342
114 119 124 122 116 108 100 96 94 91 90 88 84 83 83 82 77 72 66 60 56 52 46 42 37 32 26 20 14 359 346 342 339 353 16 36 35 23 5 354 346 336 329
115 116 117 115 114 113 113 109 105 99 95 95 90 80 78 78 82 74 69 61 54 47 37 32 27 21 13 5 358 348 346 351 345 357 26 33 19 4 350 341 335 329 324
131 123 114 112 112 112 113 114 113 105 102 89 85 76 69 64 67 82 80 65 47 35 23 18 12 8 8 352 345 346 340 345 346 351 22 24 355 338 328 323 319 314 313
134 120 113 110 109 105 103 110 99 93 88 75 73 70 68 62 58 61 63 41 25 25 11 355 354 341 347 354 345 325 328 347 343 336 350 342 329 320 314 312 310 306 304
130 122 114 111 108 105 104 107 103 96 88 79 60 57 68 56 41 38 50 32 26 18 2 347 331 346 348 350 341 329 332 328 312 311 293 313 311 306 307 308 306 303 300
133 131 126 120 115 109 103 105 98 99 97 92 76 53 61 69 53 40 35 24 19 13 3 343 341 344 339 333 331 331 323 320 316 316 301 299 299 301 301 303 304 302 301
140 138 131 129 125 119 109 103 102 101 98 84 78 67 59 63 59 43 31 20 6 354 345 337 328 326 316 317 313 313 307 306 310 314 300 298 298 299 298 298 299 301 302
144 138 136 136 130 128 124 120 110 112 104 99 91 74 63 56 48 44 30 13 347 343 340 333 325 331 324 328 322 316 309 301 299 300 295 287 288 291 293 294 297 299 300
143 140 141 141 136 134 128 126 117 111 106 107 104 89 71 55 51 37 28 357 340 347 334 317 323 332 324 321 310 303 298 295 290 286 283 279 276 277 284 294 296 296 297
147 143 141 139 140 136 129 122 110 106 107 105 99 96 85 62 47 45 17 340 352 347 326 318 332 320 311 307 295 289 287 284 282 286 282 276 270 267 263 285 293 297 297
141 139 142 140 141 135 129 117 104 102 106 102 103 104 90 72 47 31 5 344 349 342 327 322 314 316 303 296 303 297 280 273 270 268 273 276 271 270 272 275 274 282 288
140 142 148 148 148 139 136 135 131 136 138 116 122 124 103 72 42 44 357 336 332 322 306 307 310 313 308 309 314 303 283 263 262 264 272 275 275 278 275 270 264 262 274
148 150 150 151 148 144 144 143 142 140 147 144 140 134 131 105 1 332 335 298 306 313 313 308 309 303 302 321 320 317 313 302 292 287 277 274 276 281 276 276 271 268 270
152 156 154 150 149 147 142 128 117 96 85 74 141 177 179 168 223 268 285 290 294 288 289 288 289 295 293 300 305 285 301 292 308 278 273 273 278 280 276 276 273 273 275
152 147 145 148 149 146 140 137 141 148 171 198 181 197 232 207 221 245 260 277 283 285 286 290 298 282 282 289 292 270 257 276 294 301 291 283 282 283 280 287 283 275 271
135 138 143 146 146 143 142 146 152 161 180 165 156 187 234 237 231 240 243 260 271 275 277 283 287 280 267 265 273 276 283 288 275 282 293 293 281 270 273 275 275 274 272
128 132 140 145 147 147 146 151 158 163 160 161 190 209 233 246 247 248 248 252 262 268 270 272 273 271 267 265 265 264 268 273 281 280 287 295 291 281 276 272 272 273 271